GW3771 Weather Reports


time (UTC)temp
C
wind
direction
speed
KPH
gust
KPH
rain 1hr
cm
rain 24hr
cm
rain mn
cm
humidity
%
barometer
mb
20260507110043 12 288 0.0 3.2 0.00 0.00 0.00 70 1020.4
20260507105537 12 0 0.0 3.2 0.00 0.00 0.00 70 1020.4
20260507105037 12 0 0.0 6.4 0.00 0.00 0.00 69 1020.4
20260507104543 12 0 0.0 6.4 0.00 0.00 0.00 69 1020.6
20260507104036 12 0 0.0 6.4 0.00 0.00 0.00 69 1020.5
20260507103537 12 284 0.0 6.4 0.00 0.00 0.00 70 1020.5
20260507103047 12 290 1.6 6.4 0.00 0.00 0.00 70 1020.5
20260507102538 12 260 1.6 6.4 0.00 0.00 0.00 69 1020.6
20260507102038 12 294 0.0 6.4 0.00 0.00 0.00 70 1020.6
20260507101549 12 0 0.0 4.8 0.00 0.00 0.00 70 1020.6
20260507101041 12 0 0.0 3.2 0.00 0.00 0.00 70 1020.6
20260507100537 12 284 0.0 3.2 0.00 0.00 0.00 70 1020.7
20260507100045 12 0 0.0 3.2 0.00 0.00 0.00 70 1020.8
20260507095538 12 0 0.0 3.2 0.00 0.00 0.00 70 1020.8
20260507095037 12 0 0.0 6.4 0.00 0.00 0.00 70 1020.8
20260507094546 12 326 0.0 6.4 0.00 0.00 0.00 70 1020.8
20260507094037 12 332 0.0 4.8 0.00 0.00 0.00 70 1020.8
20260507093538 12 0 0.0 4.8 0.00 0.00 0.00 70 1020.8
20260507093050 12 42 0.0 4.8 0.00 0.00 0.00 69 1020.9
20260507092539 12 0 0.0 3.2 0.00 0.00 0.00 70 1020.9
20260507092041 12 0 0.0 3.2 0.00 0.00 0.00 70 1020.9
20260507091549 12 0 0.0 4.8 0.00 0.00 0.00 70 1021.1
20260507091038 12 0 0.0 4.8 0.00 0.00 0.00 70 1021.1
20260507090538 12 0 0.0 4.8 0.00 0.00 0.00 70 1021.1
20260507090050 12 0 0.0 9.7 0.00 0.00 0.00 70 1021.2
20260507085540 12 256 1.6 9.7 0.00 0.00 0.00 70 1021.2
20260507085038 12 290 1.6 6.4 0.00 0.00 0.00 70 1021.1
20260507084553 12 284 0.0 9.7 0.00 0.00 0.00 71 1021.1
20260507084038 12 0 0.0 9.7 0.00 0.00 0.00 71 1021.0
20260507083537 12 268 1.6 8.0 0.00 0.00 0.00 71 1021.0
20260507083053 12 239 1.6 6.4 0.00 0.00 0.00 71 1021.0
20260507082543 12 232 3.2 11.3 0.00 0.00 0.00 71 1021.0
20260507082042 12 248 1.6 11.3 0.00 0.00 0.00 72 1021.0
20260507081548 12 291 0.0 4.8 0.00 0.00 0.00 72 1021.0
20260507081041 12 271 0.0 6.4 0.00 0.00 0.00 72 1021.0
20260507080538 12 290 1.6 6.4 0.00 0.00 0.00 73 1021.1
20260507080113 12 286 3.2 6.4 0.00 0.00 0.00 74 1021.0
20260507075538 12 226 0.0 3.2 0.00 0.00 0.00 75 1021.0
20260507075038 12 213 0.0 4.8 0.00 0.00 0.00 75 1021.1
20260507074557 12 262 1.6 6.4 0.00 0.00 0.00 75 1021.1
20260507074037 12 0 3.2 8.0 0.00 0.00 0.00 75 1021.1
20260507073539 13 9 1.6 8.0 0.00 0.00 0.00 75 1021.0
20260507073050 13 5 3.2 6.4 0.00 0.00 0.00 75 1021.0
20260507072538 13 317 0.0 6.4 0.00 0.00 0.00 75 1021.0
20260507072042 13 0 1.6 6.4 0.00 0.00 0.00 75 1020.9
20260507071558 13 328 3.2 6.4 0.00 0.00 0.00 76 1021.0
20260507071037 13 335 1.6 6.4 0.00 0.00 0.00 76 1020.9
20260507070538 13 327 1.6 6.4 0.00 0.00 0.00 76 1020.9
20260507070042 13 5 1.6 6.4 0.00 0.00 0.00 77 1020.9
20260507065538 13 5 1.6 6.4 0.00 0.00 0.00 77 1020.9
20260507065038 13 13 0.0 4.8 0.00 0.00 0.00 77 1020.9
20260507064554 13 0 1.6 8.0 0.00 0.00 0.00 76 1020.9
20260507064037 13 17 3.2 8.0 0.00 0.00 0.00 76 1020.9
20260507063537 13 27 3.2 6.4 0.00 0.00 0.00 76 1020.9
20260507063043 13 23 1.6 9.7 0.00 0.00 0.00 76 1020.9
20260507062537 13 16 3.2 9.7 0.00 0.00 0.00 76 1020.9
20260507062038 13 18 3.2 9.7 0.00 0.00 0.00 76 1020.9
20260507061545 13 338 1.6 9.7 0.00 0.00 0.00 76 1021.0
20260507061038 13 352 3.2 9.7 0.00 0.00 0.00 75 1020.9
20260507060537 13 17 0.0 6.4 0.00 0.00 0.00 75 1020.9
20260507060044 13 9 3.2 6.4 0.00 0.00 0.00 76 1021.0
20260507055540 13 13 1.6 4.8 0.00 0.00 0.00 75 1020.9
20260507055037 13 0 0.0 3.2 0.00 0.00 0.00 75 1020.9
20260507054550 13 0 0.0 4.8 0.00 0.00 0.00 74 1020.8
20260507054037 13 352 0.0 4.8 0.00 0.00 0.00 74 1020.9
20260507053538 13 11 1.6 4.8 0.00 0.00 0.00 74 1020.9
20260507053046 14 0 1.6 8.0 0.00 0.00 0.00 74 1020.9
20260507052536 14 22 3.2 8.0 0.00 0.00 0.00 73 1020.7
20260507052039 14 19 1.6 8.0 0.00 0.00 0.00 73 1020.8
20260507051545 14 10 3.2 8.0 0.00 0.00 0.00 73 1020.8
20260507051038 14 13 1.6 8.0 0.00 0.00 0.00 73 1020.9
20260507050537 14 34 3.2 8.0 0.00 0.00 0.00 73 1020.8
20260507050045 14 5 3.2 12.9 0.00 0.00 0.00 72 1020.8
20260507045538 14 36 3.2 16.1 0.00 0.00 0.00 73 1020.8
20260507045038 14 42 4.8 16.1 0.00 0.00 0.00 72 1020.9
20260507044550 15 327 6.4 16.1 0.00 0.00 0.00 72 1020.8
20260507044042 15 352 3.2 12.9 0.00 0.00 0.00 72 1020.8
20260507043537 15 352 3.2 12.9 0.00 0.00 0.00 72 1020.8
20260507043048 15 15 3.2 12.9 0.00 0.00 0.00 72 1020.8
20260507042538 15 352 6.4 12.9 0.00 0.00 0.00 71 1020.7
20260507042037 15 9 4.8 19.3 0.00 0.00 0.00 71 1020.6
20260507041558 15 5 4.8 19.3 0.00 0.00 0.00 71 1020.6
20260507041039 15 11 6.4 12.9 0.00 0.00 0.00 71 1020.6
20260507040538 15 309 3.2 9.7 0.00 0.00 0.00 71 1020.5
20260507040058 15 335 1.6 16.1 0.00 0.00 0.00 71 1020.4
20260507035539 15 11 4.8 17.7 0.00 0.00 0.00 70 1020.4
20260507035038 15 310 8.0 17.7 0.00 0.00 0.00 70 1020.3
20260507034553 16 347 4.8 12.9 0.00 0.00 0.00 70 1020.2
20260507034038 16 309 3.2 14.5 0.00 0.00 0.00 70 1020.1
20260507033538 16 0 4.8 17.7 0.00 0.00 0.00 70 1020.1
20260507033045 16 352 8.0 17.7 0.00 0.00 0.00 70 1020.0
20260507032542 16 27 6.4 14.5 0.00 0.00 0.00 70 1019.9
20260507032037 16 14 6.4 12.9 0.00 0.00 0.00 69 1019.9
20260507031544 16 15 4.8 12.9 0.00 0.00 0.00 69 1019.8
20260507031037 16 321 3.2 11.3 0.00 0.00 0.00 69 1019.8
20260507030538 17 29 1.6 8.0 0.00 0.00 0.00 69 1019.7
20260507030053 17 15 1.6 8.0 0.00 0.00 0.00 69 1019.7
20260507025538 17 9 3.2 8.0 0.00 0.00 0.00 68 1019.7
20260507025037 17 46 1.6 8.0 0.00 0.00 0.00 68 1019.6
20260507024545 17 27 1.6 8.0 0.00 0.00 0.00 68 1019.6
20260507024040 17 51 1.6 8.0 0.00 0.00 0.00 68 1019.5
20260507023538 17 9 3.2 8.0 0.00 0.00 0.00 68 1019.4
20260507023047 17 10 3.2 8.0 0.00 0.00 0.00 67 1019.4
20260507022539 17 38 1.6 6.4 0.00 0.00 0.00 68 1019.4
20260507022038 17 35 3.2 6.4 0.00 0.00 0.00 67 1019.5
20260507021548 17 0 1.6 12.9 0.00 0.00 0.00 67 1019.4
20260507021038 17 13 4.8 12.9 0.00 0.00 0.00 66 1019.4
20260507020539 17 19 4.8 14.5 0.00 0.00 0.00 66 1019.4
20260507020053 18 43 4.8 14.5 0.00 0.00 0.00 65 1019.4
20260507015537 18 350 4.8 16.1 0.00 0.00 0.00 65 1019.4
20260507015037 18 331 8.0 19.3 0.00 0.00 0.00 64 1019.5
20260507014600 18 352 9.7 19.3 0.00 0.00 0.00 63 1019.5
20260507014038 19 329 8.0 17.7 0.00 0.00 0.00 63 1019.5
20260507013540 19 328 6.4 17.7 0.00 0.00 0.00 63 1019.5
20260507013048 19 19 8.0 17.7 0.00 0.00 0.00 63 1019.4
20260507012538 19 346 6.4 17.7 0.00 0.00 0.00 62 1019.4
20260507012038 20 325 8.0 17.7 0.00 0.00 0.00 62 1019.3
20260507011557 20 336 9.7 16.1 0.00 0.00 0.00 62 1019.3
20260507011037 20 13 4.8 14.5 0.00 0.00 0.00 63 1019.2
20260507010537 20 19 8.0 16.1 0.00 0.00 0.00 63 1019.3
20260507010049 20 339 8.0 16.1 0.00 0.00 0.00 62 1019.2
20260507005538 20 35 4.8 14.5 0.00 0.00 0.00 63 1019.3
20260507005041 20 339 8.0 14.5 0.00 0.00 0.00 62 1019.3
20260507004550 20 351 8.0 16.1 0.00 0.00 0.00 61 1019.3
20260507004038 21 5 8.0 19.3 0.00 0.00 0.00 61 1019.3
20260507003542 21 16 6.4 19.3 0.00 0.00 0.00 60 1019.4
20260507003050 21 360 6.4 12.9 0.00 0.00 0.00 57 1019.1
20260507002538 22 336 6.4 12.9 0.00 0.00 0.00 56 1019.1
20260507002038 22 5 3.2 12.9 0.00 0.00 0.00 55 1019.1
20260507001605 22 5 3.2 12.9 0.00 0.00 0.00 54 1019.1
20260507001037 23 32 6.4 12.9 0.00 0.00 0.00 52 1019.1
20260507000544 24 9 3.2 11.3 0.00 0.00 0.00 51 1019.1
20260507000057 25 185 1.6 11.3 0.00 0.00 0.00 51 1018.9
20260506235540 25 234 1.6 9.7 0.00 0.00 0.00 51 1019.0
20260506235038 25 300 1.6 11.3 0.00 0.00 0.00 49 1019.0
20260506234548 25 274 3.2 11.3 0.00 0.00 0.00 49 1019.0
20260506234037 25 241 3.2 11.3 0.00 0.00 0.00 51 1019.1
20260506233538 25 257 4.8 11.3 0.00 0.00 0.00 49 1019.1
20260506233044 25 193 4.8 12.9 0.00 0.00 0.00 50 1019.1
20260506232537 25 190 4.8 12.9 0.00 0.00 0.00 49 1019.1
20260506232038 25 189 1.6 14.5 0.00 0.00 0.00 51 1019.1
20260506231544 25 262 3.2 14.5 0.00 0.00 0.00 50 1019.3
20260506231038 25 0 1.6 9.7 0.00 0.00 0.00 52 1019.2
20260506230541 25 211 3.2 11.3 0.00 0.00 0.00 51 1019.3
20260506230048 25 179 4.8 14.5 0.00 0.00 0.00 50 1019.4
20260506225540 25 119 4.8 14.5 0.00 0.00 0.00 51 1019.4
20260506225040 24 258 3.2 9.7 0.00 0.00 0.00 52 1019.4
20260506224549 24 216 1.6 9.7 0.00 0.00 0.00 54 1019.5
20260506224037 23 169 3.2 16.1 0.00 0.00 0.00 54 1019.5
20260506223538 23 154 6.4 16.1 0.00 0.00 0.00 53 1019.6
20260506223050 23 192 4.8 12.9 0.00 0.00 0.00 55 1019.7
20260506222537 23 148 1.6 14.5 0.00 0.00 0.00 55 1019.7
20260506222037 23 167 4.8 14.5 0.00 0.00 0.00 54 1019.7
20260506221549 22 148 4.8 14.5 0.00 0.00 0.00 56 1019.8
20260506221038 22 184 4.8 12.9 0.00 0.00 0.00 56 1019.8
20260506220538 22 148 3.2 12.9 0.00 0.00 0.00 56 1019.8
20260506220058 22 150 4.8 14.5 0.00 0.00 0.00 56 1019.8
20260506215538 22 153 6.4 16.1 0.00 0.00 0.00 56 1019.8
20260506215041 22 128 3.2 16.1 0.00 0.00 0.00 56 1019.7
20260506214547 22 199 6.4 16.1 0.00 0.00 0.00 56 1019.7
20260506214039 22 78 1.6 12.9 0.00 0.00 0.00 57 1019.7
20260506213538 22 192 4.8 12.9 0.00 0.00 0.00 56 1019.8
20260506213052 22 185 1.6 14.5 0.00 0.00 0.00 58 1019.8
20260506212537 22 82 4.8 14.5 0.00 0.00 0.00 58 1019.9
20260506212037 22 169 1.6 6.4 0.00 0.00 0.00 59 1020.0
20260506211551 21 217 1.6 8.0 0.00 0.00 0.00 60 1020.0
20260506211037 21 257 3.2 12.9 0.00 0.00 0.00 62 1020.0
20260506210540 21 270 1.6 14.5 0.00 0.00 0.00 60 1020.2
20260506210100 21 278 6.4 14.5 0.00 0.00 0.00 60 1020.2
20260506205539 21 244 3.2 11.3 0.00 0.00 0.00 62 1020.2
20260506205041 20 140 3.2 12.9 0.00 0.00 0.00 63 1020.2
20260506204554 20 0 1.6 12.9 0.00 0.00 0.00 63 1020.1
20260506204037 20 136 3.2 11.3 0.00 0.00 0.00 63 1020.1
20260506203540 20 224 4.8 11.3 0.00 0.00 0.00 64 1020.1
20260506203128 20 0 1.6 14.5 0.00 0.00 0.00 65 1019.9
20260506202538 20 87 4.8 14.5 0.00 0.00 0.00 65 1020.0
20260506202041 20 202 3.2 11.3 0.00 0.00 0.00 66 1020.0
20260506201547 20 133 1.6 12.9 0.00 0.00 0.00 66 1020.1
20260506201037 19 79 6.4 12.9 0.00 0.00 0.00 67 1020.2
20260506200537 18 0 1.6 11.3 0.00 0.00 0.00 69 1020.2
20260506200051 18 142 4.8 11.3 0.00 0.00 0.00 68 1020.2
20260506195538 18 148 3.2 6.4 0.00 0.00 0.00 69 1020.3
20260506195038 18 0 1.6 6.4 0.00 0.00 0.00 69 1020.4
20260506194543 18 198 1.6 6.4 0.00 0.00 0.00 70 1020.4
20260506194038 18 181 0.0 6.4 0.00 0.00 0.00 70 1020.6
20260506193537 18 186 0.0 8.0 0.00 0.00 0.00 69 1020.6
20260506193043 18 0 1.6 8.0 0.00 0.00 0.00 69 1020.6
20260506192537 18 321 3.2 8.0 0.00 0.00 0.00 69 1020.6
20260506192040 18 48 1.6 8.0 0.00 0.00 0.00 69 1020.6
20260506191545 18 283 0.0 9.7 0.00 0.00 0.00 70 1020.6
20260506191042 18 0 1.6 9.7 0.00 0.00 0.00 69 1020.6
20260506190538 18 274 1.6 9.7 0.00 0.00 0.00 70 1020.6
20260506190054 17 226 1.6 8.0 0.00 0.00 0.00 70 1020.6
20260506185537 17 121 0.0 6.4 0.00 0.00 0.00 70 1020.7
20260506185037 17 0 1.6 6.4 0.00 0.00 0.00 69 1020.7
20260506184556 17 178 1.6 8.0 0.00 0.00 0.00 70 1020.6
20260506184037 17 279 1.6 9.7 0.00 0.00 0.00 70 1020.5
20260506183538 17 207 3.2 9.7 0.00 0.00 0.00 70 1020.4
20260506183044 17 278 1.6 8.0 0.00 0.00 0.00 71 1020.5
20260506182538 17 244 3.2 8.0 0.00 0.00 0.00 70 1020.6
20260506182039 17 232 1.6 6.4 0.00 0.00 0.00 70 1020.7
20260506181543 17 167 1.6 9.7 0.00 0.00 0.00 71 1020.7
20260506181041 17 132 1.6 11.3 0.00 0.00 0.00 73 1020.7
20260506180538 17 184 4.8 11.3 0.00 0.00 0.00 73 1020.7
20260506180047 16 246 1.6 12.9 0.00 0.00 0.00 74 1020.6
20260506175538 16 260 3.2 12.9 0.00 0.00 0.00 73 1020.6
20260506175043 16 0 3.2 8.0 0.00 0.00 0.00 74 1020.6
20260506174604 16 237 0.0 8.0 0.00 0.00 0.00 75 1020.7
20260506174037 16 160 0.0 9.7 0.00 0.00 0.00 75 1020.7
20260506173539 16 246 1.6 11.3 0.00 0.00 0.00 75 1020.8
20260506173054 16 184 6.4 11.3 0.00 0.00 0.00 75 1020.6
20260506172537 15 150 3.2 11.3 0.00 0.00 0.00 74 1020.4
20260506172039 15 175 3.2 11.3 0.00 0.00 0.00 75 1020.3
20260506171544 15 183 4.8 11.3 0.00 0.00 0.00 76 1020.4
20260506171037 15 185 3.2 11.3 0.00 0.00 0.00 76 1020.5
20260506170539 15 165 4.8 11.3 0.00 0.00 0.00 76 1020.5
20260506170048 15 178 1.6 8.0 0.00 0.00 0.00 77 1020.5
20260506165538 15 173 0.0 4.8 0.00 0.00 0.00 78 1020.5
20260506165041 15 0 0.0 6.4 0.00 0.00 0.00 78 1020.6
20260506164549 15 0 0.0 6.4 0.00 0.00 0.00 79 1020.6
20260506164037 15 177 0.0 6.4 0.00 0.00 0.00 79 1020.5
20260506163538 15 240 0.0 9.7 0.00 0.00 0.00 78 1020.5
20260506163102 15 302 1.6 9.7 0.00 0.00 0.00 78 1020.5
20260506162537 15 224 1.6 9.7 0.00 0.00 0.00 79 1020.5
20260506162037 15 196 3.2 6.4 0.00 0.00 0.00 79 1020.4
20260506161549 15 273 0.0 6.4 0.00 0.00 0.00 80 1020.4
20260506161039 15 194 0.0 6.4 0.00 0.00 0.00 80 1020.4
20260506160538 14 232 0.0 8.0 0.00 0.00 0.00 80 1020.2
20260506160051 14 0 3.2 9.7 0.00 0.00 0.00 80 1020.3
20260506155537 14 220 3.2 9.7 0.00 0.00 0.00 80 1020.0
20260506155038 14 209 1.6 11.3 0.00 0.00 0.00 81 1020.1
20260506154553 14 163 3.2 14.5 0.00 0.00 0.00 81 1020.0
20260506154041 13 140 6.4 14.5 0.00 0.00 0.00 81 1019.6
20260506153538 13 127 4.8 9.7 0.00 0.00 0.00 81 1019.5
20260506153112 13 96 3.2 6.4 0.00 0.00 0.00 81 1019.9
20260506152537 13 130 1.6 3.2 0.00 0.00 0.00 81 1020.2
20260506152037 13 0 0.0 3.2 0.00 0.00 0.00 81 1020.4
20260506151550 13 0 1.6 3.2 0.00 0.00 0.00 81 1020.5
20260506151038 13 0 0.0 3.2 0.00 0.00 0.00 81 1020.6
20260506150537 13 0 0.0 4.8 0.00 0.00 0.00 81 1020.5
20260506150050 13 0 0.0 6.4 0.00 0.00 0.00 81 1020.5
20260506145537 13 158 1.6 6.4 0.00 0.00 0.00 81 1020.5
20260506145037 13 174 3.2 6.4 0.00 0.00 0.00 81 1020.5
20260506144547 13 0 0.0 6.4 0.00 0.00 0.00 81 1020.4
20260506144039 13 183 0.0 6.4 0.00 0.00 0.00 81 1020.2
20260506143538 13 0 0.0 4.8 0.00 0.00 0.00 81 1020.2
20260506143054 13 0 0.0 4.8 0.00 0.00 0.00 81 1020.2
20260506142538 13 0 1.6 6.4 0.00 0.00 0.00 81 1020.0
20260506142037 13 202 0.0 8.0 0.00 0.00 0.00 81 1019.8
20260506141551 13 173 3.2 8.0 0.00 0.00 0.00 81 1019.7
20260506141039 13 164 3.2 8.0 0.00 0.00 0.00 82 1019.5
20260506140542 13 166 0.0 9.7 0.00 0.00 0.00 83 1019.5
20260506140049 13 0 3.2 11.3 0.00 0.00 0.00 83 1019.5
20260506135538 13 65 3.2 11.3 0.00 0.00 0.00 83 1019.4
20260506135039 13 84 4.8 11.3 0.00 0.00 0.00 83 1019.4
20260506134549 13 85 1.6 6.4 0.00 0.00 0.00 83 1019.4
20260506134038 13 0 0.0 8.0 0.00 0.00 0.00 83 1019.2
20260506133538 13 0 0.0 8.0 0.00 0.00 0.00 83 1019.2
20260506133050 13 0 1.6 8.0 0.00 0.00 0.00 83 1019.1
20260506132541 13 0 0.0 3.2 0.00 0.00 0.00 83 1019.1
20260506132037 13 0 0.0 3.2 0.00 0.00 0.00 83 1019.1
20260506131551 13 0 0.0 4.8 0.00 0.00 0.00 83 1018.9
20260506131039 13 0 0.0 6.4 0.00 0.00 0.00 83 1018.8
20260506130538 13 95 0.0 6.4 0.00 0.00 0.00 83 1018.7
20260506130050 13 128 0.0 6.4 0.00 0.00 0.00 83 1018.8
20260506125537 13 0 0.0 4.8 0.00 0.00 0.00 83 1018.8
20260506125037 13 0 0.0 4.8 0.00 0.00 0.00 83 1018.7
20260506124545 13 0 0.0 3.2 0.00 0.00 0.00 83 1018.8
20260506124037 13 146 0.0 1.6 0.00 0.00 0.00 83 1018.6
20260506123537 14 0 0.0 0.0 0.00 0.00 0.00 83 1018.6
20260506123052 14 0 0.0 0.0 0.00 0.00 0.00 83 1018.6
20260506122537 14 0 0.0 0.0 0.00 0.00 0.00 83 1018.7
20260506122037 14 0 0.0 0.0 0.00 0.00 0.00 83 1018.7
20260506121602 14 0 0.0 0.0 0.00 0.00 0.00 83 1018.7
20260506121037 14 0 0.0 3.2 0.00 0.00 0.00 83 1018.7
20260506120537 14 0 0.0 3.2 0.00 0.00 0.00 83 1018.7
20260506120051 14 0 0.0 3.2 0.00 0.00 0.00 83 1018.7
20260506115540 14 175 0.0 0.0 0.00 0.00 0.00 83 1018.7
20260506115038 14 0 0.0 3.2 0.00 0.00 0.00 82 1018.6
20260506114549 14 0 0.0 3.2 0.00 0.00 0.00 82 1018.5
20260506114037 14 0 0.0 3.2 0.00 0.00 0.00 81 1018.4
20260506113540 14 0 0.0 0.0 0.00 0.00 0.00 80 1018.4
20260506113048 14 0 0.0 0.0 0.00 0.00 0.00 80 1018.4
20260506112538 14 0 0.0 0.0 0.00 0.00 0.00 80 1018.4
20260506112039 14 0 0.0 1.6 0.00 0.00 0.00 80 1018.3
20260506111542 14 0 0.0 3.2 0.00 0.00 0.00 80 1018.3
20260506111037 14 0 0.0 3.2 0.00 0.00 0.00 80 1018.3
20260506110539 14 0 0.0 3.2 0.00 0.00 0.00 80 1018.2